Regional Weather Roundup
Issued by NWS Charleston, WV

Home | Current Version | Previous Version | Text Only | Print | Product List | Glossary Off
Versions: 1 2 3 4 5 6 7 8 9 10 11 12 13 14 15 16 17 18 19 20 21 22 23 24 25 26 27 28 29 30 31 32 33 34 35 36 37 38 39 40 41 42 43 44 45 46 47 48 49 50

000
ASUS41 KRLX 151510
RWRRLX
West Virginia Regional Weather Roundup
National Weather Service Charleston WV
1100 AM EDT MON SEP 15 2014

Note: "fair" indicates few or no clouds below 12,000 feet with no
significant weather and/or obstructions to visibility.

WVZ003-151600-
Northern Panhandle of West Virginia

CITY           SKY/WX    TMP DP  RH WIND       PRES   REMARKS
WHEELING       SUNNY     61  47  59 SE7       30.23F
$$

WVZ009-151600-
Northwest West Virginia

CITY           SKY/WX    TMP DP  RH WIND       PRES   REMARKS
PARKERSBURG    SUNNY     63  52  67 SE3       30.25F
$$

WVZ006-151600-
Western West Virginia

CITY           SKY/WX    TMP DP  RH WIND       PRES   REMARKS
HUNTINGTON     MOSUNNY   57  57 100 E3        30.21F
$$

WVZ015-151600-
West Central West Virginia

CITY           SKY/WX    TMP DP  RH WIND       PRES   REMARKS
CHARLESTON     CLOUDY    57  57 100 VRB3      30.22F FOG
$$

WVZ031-151600-
North Central West Virginia

CITY           SKY/WX    TMP DP  RH WIND       PRES   REMARKS
CLARKSBURG     CLOUDY    55  53  93 CALM      30.24F
MORGANTOWN     SUNNY     62  50  64 CALM      30.25F
$$

WVZ035-042-045-151600-
South Central West Virginia

CITY           SKY/WX    TMP DP  RH WIND       PRES   REMARKS
BECKLEY        CLOUDY    63  57  81 W6        30.25S
BLUEFIELD      PTSUNNY   66  59  78 SW7       30.27F
LEWISBURG      CLOUDY    58  56  94 CALM      30.26F
$$

WVZ047-151600-
Northern Mountains of West Virginia

CITY           SKY/WX    TMP DP  RH WIND       PRES   REMARKS
ELKINS         CLOUDY    53  51  93 CALM      30.25F
$$

WVZ052-151600-
Eastern Panhandle of West Virginia

CITY           SKY/WX    TMP DP  RH WIND       PRES   REMARKS
MARTINSBURG    SUNNY     63  48  58 CALM      30.26F
PETERSBURG     MOSUNNY   57  55  92 CALM      30.26F
$$


USA.gov is the U.S. government's official web portal to all federal, state and local government web resources and services.